NOAA 16 DEB, 41203

Orbit data source: Space-Track

NOAA 16 DEB, 41203 is space debris in SSO originally from a launch on Thu, 21 Sep 2000 UTC launched from the Air Force Western Test Range (AFWTR). Debris objects in space refer to the collection of defunct objects orbiting the Earth. Examples of debris include non-operational satellites, rocket bodies, and fragments generated from explosions, collisions, or faulty payload assembly.

Loading next visibility...
Identifier
41203, 2000-055DG
Orbit
SSO
Country
Flag of USUS
Related business
Manufacturer
Unknown
Mission
Spacecraft
Bus & Motor
Unknown
Mass
Unknown
Launch date (UTC)
2000-09-21 (25 years ago)
Launch vehicle
Unknown
Launch site
Air Force Western Test Range (AFWTR)
Object type
Payload
Rocket body
Debris
Shape & HBR
Unknown shape, 0.1 m
Radar Cross Section
Small (<0.1 m²)

Expand to show TLE details & history
Last TLE update: 17 hours ago

TLE from 17 hours ago
0 NOAA 16 DEB
1 41203U 00055DG  25293.94257767  .00004658  00000-0  22545-2 0  9991
2 41203  98.7009 336.5448 0034066  98.4236 262.0803 14.18629945507865
Epoch: 2025-10-20T22:37Z
TLE epoch observation values (Epoch: 2025-10-20T22:37:18.710Z)
Latitude
-0.00009°
Longitude
-32.42079°
Altitude
836.369 km
Speed
7.433 km/s
True Right ascension
22h 26m 10s
True Declination
0° 00' 00"
Sunlit
Object was in full shadow at epoch
Visualization orbit readout
Latitude
Unknown
Longitude
Unknown
Altitude
Unknown
Speed
Unknown
Apparent Right ascension
Unknown
Apparent Declination
Unknown
Sunlit
N/A
Visualization observer readout
Local Sidereal Time
11:02:23
Azimuth
Unknown
Elevation
Unknown
Doppler factor
Unknown
Orbital elements
Apogee altitude
851.695 km
Perigee altitude
802.604 km
Semi-major axis
7,205.287 km
Eccentricity
0.00341
Inclination
98.7009°
RAAN
336.5448°
Arg. of periapsis
98.4236°
True anomaly
261.69389°
Mean anomaly
262.0803°
Eccentric anomaly
261.88707°
Mean motion
3.54868 °/min
Orbital period
101.45 mins
BSTAR
0.0022545
Loading maneuver chart data...
Computing Atmospheric mass density...

Documentation

Showing up to 5 results
|